[[{"header":{"parameterUnit":"m.s-1","parameterCategory":2,"la1":30.2991,"la2":30.254,"lo1":-89.0895,"lo2":-89.0444,"dy":0.0017,"dx":0.0017,"nx":28,"ny":28,"refTime":"2024-08-26T09:00:00:Z","depth":"0","parameterNumber":2,"parameterNumberName":"U-component_of_CURRENTS"},"data":[0,0,0,0,0,0,0,0,0,0,0,0,0,0,0,0,0,0,0,0,0,0,0,0,0,0,0,0,0,0,0,0,0,0,0,0,0,0,0,0,0,0,0,0,0,0,0,0,0,0,0,0,0,0,0,0,0,0,0.2722,0.2722,0,0.2712,0.2712,0.2711,0.2701,0.2701,0.2701,0.2702,0.2627,0.2624,0.2622,0,0,0,0,0,0,0,0,0,0,0,0,0,0.2692,0.2692,0.2722,0.2722,0.2723,0.2713,0.2712,0.2711,0.2701,0.2701,0.2701,0.2702,0.2627,0.2625,0.2622,0,0,0,0,0,0,0,0,0,0,0,0,0,0.2691,0.2692,0.2722,0.272,0.272,0.2713,0.2712,0.2711,0.2701,0.2701,0.2701,0.2702,0.2628,0.2625,0.2621,0.2592,0,0,0.2611,0.261,0,0,0,0,0,0,0,0,0.2691,0.2692,0.272,0.272,0.272,0.2713,0.2674,0.267,0.27,0.2703,0.2702,0.2702,0.2652,0.2647,0.2638,0.2588,0.2585,0.2611,0.2609,0.2607,0.2606,0,0,0,0,0,0,0,0.2691,0.2692,0.2713,0.272,0.272,0.2706,0.2706,0.2673,0.267,0.2702,0.2703,0.271,0.2651,0.2641,0.2636,0.2584,0.2611,0.2608,0.2606,0.2604,0.257,0.2571,0,0,0,0,0,0,0.2704,0.2692,0.2714,0.2713,0.2712,0.2707,0.2707,0.271,0.2672,0.2668,0.2709,0.2709,0.2647,0.264,0.2633,0.2653,0.2607,0.2604,0.2602,0.2569,0.257,0.2571,0,0,0,0,0,0,0.2703,0.2706,0.2714,0.2707,0.2707,0.2708,0.2711,0.271,0.2712,0.2679,0.2673,0.2715,0.2647,0.2638,0.2622,0.2647,0.2602,0.2599,0.2568,0.2569,0.2571,0.2654,0,0,0,0,0,0,0.2702,0.2706,0.2706,0.2707,0.2708,0.2726,0.2711,0.271,0.2718,0.2718,0.2681,0.2674,0.2647,0.2628,0.2619,0.2642,0.2597,0.2566,0.2568,0.257,0.265,0.2659,0.2666,0,0,0,0,0,0.2701,0.2704,0.2706,0.2708,0.2711,0.2728,0.2726,0.2724,0.2718,0.2726,0.2703,0.2676,0.2636,0.2626,0.2615,0.2638,0.2565,0.2568,0.257,0.2646,0.2657,0.2666,0,0,0,0,0,0,0.2682,0.2704,0.2705,0.2712,0.2728,0.2728,0.2731,0.2731,0.2719,0.2716,0.268,0.2672,0.2675,0.264,0.2631,0.2636,0.2599,0.26,0.2661,0.267,0.2678,0.2686,0.2594,0,0,0,0,0,0.2682,0.2693,0.2712,0.2716,0.2727,0.273,0.2734,0.2739,0.2733,0.2728,0.2707,0.2684,0.2674,0.266,0.2644,0.2632,0.2635,0.2643,0.2651,0.2658,0.2658,0.2691,0.2702,0.258,0.258,0.258,0,0,0.2675,0.2688,0.2693,0.2714,0.2721,0.2738,0.2733,0.2749,0.2762,0.2719,0.2722,0.2711,0.2679,0.2682,0.2679,0.2656,0.27,0.2661,0.2667,0.2663,0.2695,0.2707,0.2718,0.2582,0.2581,0.2581,0,0,0.2676,0.2683,0.2698,0.2714,0.274,0.2746,0.2757,0.2771,0.2778,0.278,0.2766,0.2773,0.2736,0.2735,0.2725,0.2761,0.2747,0.2757,0.2792,0.2825,0.2836,0.2845,0.2892,0.2904,0.2753,0.2753,0.2753,0,0.2671,0.2684,0.2704,0.2724,0.2736,0.2754,0.2773,0.2784,0.2791,0.2799,0.2792,0.2785,0.2765,0.2778,0.2799,0.2781,0.2799,0.276,0.2837,0.2846,0.2854,0.2899,0.2912,0.2757,0.2757,0.2756,0.2756,0,0.2684,0.2696,0.2707,0.2738,0.2757,0.2775,0.2803,0.2822,0.2831,0.2841,0.2866,0.2853,0.2848,0.2855,0.2834,0.2883,0.2881,0.2852,0.2816,0.2872,0.2916,0.2928,0.2764,0.2762,0.2761,0.276,0,0,0.2672,0.271,0.2712,0.2725,0.2765,0.278,0.2815,0.2849,0.287,0.2889,0.2915,0.2925,0.2929,0.2919,0.2911,0.294,0.3027,0.2922,0.2922,0.2975,0.3119,0.3091,0.3101,0.3015,0.3017,0.3018,0.3137,0,0.2676,0.2705,0.2727,0.2752,0.277,0.2801,0.2828,0.2863,0.2891,0.2922,0.2941,0.2957,0.295,0.2954,0.299,0.301,0.3058,0.2999,0.305,0.3052,0.3025,0.3113,0.2909,0.2994,0.3148,0.315,0.3152,0,0.268,0.27,0.2722,0.2758,0.277,0.2785,0.2834,0.2862,0.2917,0.294,0.2977,0.2991,0.3043,0.3023,0.3112,0.3075,0.3109,0.313,0.3134,0.3082,0.3046,0.2957,0.301,0.2912,0.317,0.3168,0.3167,0,0.2652,0.2694,0.2705,0.2717,0.2763,0.2778,0.2805,0.2862,0.289,0.2952,0.2981,0.304,0.3072,0.3123,0.3184,0.315,0.3287,0.3238,0.3254,0.3253,0.3074,0.3054,0.3035,0.3314,0.3314,0.3313,0.3313,0,0.2638,0.2645,0.2689,0.2691,0.2708,0.2755,0.278,0.2821,0.2883,0.2923,0.2983,0.3025,0.31,0.3183,0.3219,0.3292,0.3323,0.3286,0.3287,0.31,0.3081,0.2981,0.2941,0.3318,0.3317,0.3316,0.3315,0,0.2587,0.2617,0.2631,0.2677,0.2688,0.2697,0.2749,0.2777,0.2845,0.2905,0.2926,0.3034,0.3143,0.3235,0.3337,0.3339,0.3298,0.342,0.3211,0.3185,0.3066,0.3037,0.2964,0.2881,0.3438,0.3438,0.3438,0,0.2552,0.2559,0.2602,0.261,0.2622,0.2646,0.2668,0.2738,0.2778,0.2904,0.2932,0.3064,0.3148,0.3305,0.333,0.3415,0.3317,0.327,0.3158,0.3057,0.3026,0.2936,0.2865,0.2967,0.2963,0.296,0.2958,0,0.2489,0.2511,0.2524,0.2551,0.2568,0.2584,0.2627,0.2648,0.2749,0.2803,0.2889,0.2965,0.3127,0.3118,0.325,0.3257,0.3071,0.321,0.3138,0.2696,0.2559,0.2478,0.2917,0.293,0.2933,0.2935,0.2936,0.2937,0.2435,0.2434,0.2468,0.2473,0.25,0.2513,0.2483,0.2557,0.2592,0.2642,0.2772,0.2813,0.2879,0.3015,0.3028,0.2885,0.2932,0.2748,0.2741,0.2677,0.2522,0.2928,0.2919,0.2922,0.2924,0.2926,0.2928,0,0.2366,0.2377,0.2391,0.2394,0.2377,0.2421,0.2441,0.2395,0.2391,0.2497,0.2533,0.2541,0.2536,0.2585,0.2522,0.2418,0.2299,0.2334,0.2119,0.2088,0.2461,0.2363,0.2191,0.2191,0.2191,0.2191,0.2191,0.2191,0.2333,0.2312,0.2313,0.2253,0.2251,0.218,0.2153,0.2125,0.2157,0.2135,0.2128,0.2184,0.228,0.2229,0.21,0.2044,0.1882,0.1773,0.1853,0.2062,0.2098,0.2132,0.203,0.179,0.179,0.1329,0.1325,0.1322]},{"header":{"parameterUnit":"m.s-1","parameterCategory":2,"la1":30.2991,"la2":30.254,"lo1":-89.0895,"lo2":-89.0444,"dy":0.0017,"dx":0.0017,"nx":28,"ny":28,"refTime":"2024-08-26T09:00:00:Z","depth":"0","parameterNumber":3,"parameterNumberName":"V-component_of_CURRENTS"},"data":[0,0,0,0,0,0,0,0,0,0,0,0,0,0,0,0,0,0,0,0,0,0,0,0,0,0,0,0,0,0,0,0,0,0,0,0,0,0,0,0,0,0,0,0,0,0,0,0,0,0,0,0,0,0,0,0,0,0,-0.0513,-0.0514,0,-0.0567,-0.0568,-0.0568,-0.0601,-0.0601,-0.0601,-0.0601,-0.066,-0.0662,-0.0663,0,0,0,0,0,0,0,0,0,0,0,0,0,-0.0345,-0.0349,-0.0513,-0.0514,-0.0514,-0.0567,-0.0568,-0.0569,-0.0601,-0.0601,-0.0601,-0.0601,-0.066,-0.0661,-0.0663,0,0,0,0,0,0,0,0,0,0,0,0,0,-0.0412,-0.035,-0.0513,-0.0535,-0.0537,-0.0566,-0.0568,-0.0569,-0.0601,-0.0601,-0.0601,-0.0601,-0.0659,-0.0661,-0.0664,-0.0679,0,0,-0.0671,-0.0672,0,0,0,0,0,0,0,0,-0.0409,-0.0419,-0.0531,-0.0534,-0.0536,-0.0575,-0.053,-0.0605,-0.0601,-0.0579,-0.0601,-0.0601,-0.0631,-0.0636,-0.0649,-0.0682,-0.0684,-0.0671,-0.0673,-0.0674,-0.0674,0,0,0,0,0,0,0,-0.0404,-0.0416,-0.0536,-0.0532,-0.0535,-0.051,-0.0521,-0.0544,-0.0606,-0.0581,-0.0583,-0.0586,-0.0633,-0.0646,-0.065,-0.0685,-0.0671,-0.0673,-0.0675,-0.0676,-0.0713,-0.0712,0,0,0,0,0,0,-0.04,-0.0413,-0.0534,-0.0538,-0.0469,-0.0513,-0.0525,-0.0564,-0.0606,-0.0611,-0.0586,-0.0587,-0.0642,-0.0647,-0.0652,-0.065,-0.0674,-0.0676,-0.0677,-0.0713,-0.0713,-0.0712,0,0,0,0,0,0,-0.0396,-0.0411,-0.0532,-0.0472,-0.0485,-0.0517,-0.056,-0.0565,-0.0574,-0.0609,-0.0615,-0.0588,-0.0642,-0.0649,-0.0665,-0.0653,-0.0677,-0.0679,-0.0714,-0.0713,-0.0712,-0.0659,0,0,0,0,0,0,-0.0392,-0.0411,-0.0432,-0.0473,-0.0489,-0.0538,-0.056,-0.0566,-0.0576,-0.0578,-0.0613,-0.0619,-0.0643,-0.0661,-0.0667,-0.0657,-0.0681,-0.0714,-0.0713,-0.0713,-0.0661,-0.0656,-0.0652,0,0,0,0,0,-0.0386,-0.0409,-0.0434,-0.0447,-0.0521,-0.0537,-0.0542,-0.0564,-0.0575,-0.0573,-0.0599,-0.0618,-0.066,-0.0663,-0.067,-0.066,-0.0715,-0.0714,-0.0713,-0.0663,-0.0657,-0.0652,0,0,0,0,0,0,-0.0342,-0.0416,-0.0443,-0.0488,-0.0507,-0.0541,-0.054,-0.0559,-0.0579,-0.058,-0.0616,-0.0623,-0.0633,-0.0654,-0.0656,-0.0668,-0.0689,-0.0689,-0.0649,-0.0644,-0.0639,-0.0616,-0.0683,0,0,0,0,0,-0.0345,-0.0384,-0.0437,-0.0465,-0.0477,-0.0509,-0.0517,-0.0533,-0.0557,-0.0566,-0.0591,-0.0615,-0.0636,-0.0645,-0.0667,-0.0674,-0.0679,-0.0671,-0.0667,-0.0663,-0.0649,-0.0653,-0.0647,-0.0709,-0.0709,-0.0709,0,0,-0.033,-0.0377,-0.0396,-0.0456,-0.0475,-0.0482,-0.0514,-0.0522,-0.0522,-0.0569,-0.0573,-0.0603,-0.0635,-0.0644,-0.0649,-0.0658,-0.0645,-0.0661,-0.0658,-0.0646,-0.0651,-0.0645,-0.064,-0.0708,-0.0708,-0.0708,0,0,-0.0304,-0.0365,-0.0382,-0.0401,-0.0431,-0.0452,-0.0452,-0.0486,-0.0496,-0.051,-0.0541,-0.0559,-0.0593,-0.061,-0.0624,-0.0608,-0.0624,-0.0617,-0.0573,-0.0578,-0.0572,-0.0568,-0.0553,-0.0548,-0.0611,-0.0611,-0.0611,0,-0.0278,-0.0326,-0.0379,-0.0391,-0.0398,-0.0436,-0.0433,-0.0448,-0.0478,-0.0479,-0.0501,-0.0542,-0.0575,-0.0578,-0.0575,-0.0597,-0.0595,-0.0591,-0.057,-0.0566,-0.0562,-0.0549,-0.0544,-0.0609,-0.0609,-0.0609,-0.0609,0,-0.0264,-0.0297,-0.0299,-0.034,-0.0348,-0.035,-0.038,-0.0381,-0.0402,-0.0421,-0.0431,-0.0477,-0.0498,-0.0514,-0.0543,-0.053,-0.0536,-0.0566,-0.0581,-0.0553,-0.0541,-0.0536,-0.0605,-0.0606,-0.0606,-0.0607,0,0,-0.0229,-0.0281,-0.0281,-0.0286,-0.0325,-0.0323,-0.032,-0.0328,-0.0309,-0.0349,-0.0333,-0.0383,-0.0409,-0.0426,-0.0464,-0.047,-0.0449,-0.0501,-0.0503,-0.048,-0.0439,-0.0411,-0.0404,-0.0477,-0.0476,-0.0475,-0.0437,0,-0.02,-0.0206,-0.0244,-0.0229,-0.0232,-0.0261,-0.0249,-0.0256,-0.0268,-0.0259,-0.0306,-0.0314,-0.0375,-0.0384,-0.04,-0.0438,-0.0436,-0.0456,-0.0476,-0.0475,-0.0449,-0.0398,-0.0363,-0.0324,-0.0432,-0.0432,-0.0431,0,-0.0183,-0.0189,-0.0173,-0.0179,-0.018,-0.0168,-0.0147,-0.0142,-0.0145,-0.0155,-0.0174,-0.0216,-0.0237,-0.0295,-0.0333,-0.0342,-0.038,-0.0411,-0.0411,-0.0398,-0.0439,-0.0373,-0.0312,-0.0418,-0.0424,-0.0425,-0.0425,0,-0.0132,-0.0143,-0.0123,-0.0126,-0.0133,-0.0114,-0.0108,-0.0104,-0.0079,-0.0084,-0.0062,-0.0115,-0.0122,-0.0186,-0.0261,-0.0296,-0.0288,-0.035,-0.0355,-0.0353,-0.0333,-0.0331,-0.037,-0.0364,-0.0364,-0.0364,-0.0364,0,-0.0103,-0.0089,-0.0091,-0.0079,-0.003,-0.0057,-0.0001,0.0001,0.0021,0.0079,-0.0,0.0038,-0.0095,-0.0118,-0.0207,-0.0245,-0.0247,-0.0322,-0.0335,-0.0312,-0.0309,-0.0409,-0.0491,-0.0362,-0.0363,-0.0363,-0.0363,0,-0.0061,-0.007,-0.004,-0.0023,-0.0009,0.0031,0.0071,0.0117,0.0124,0.0203,0.0206,0.0164,0.0144,0.0032,-0.0055,-0.0152,-0.0257,-0.0228,-0.018,-0.0188,-0.0312,-0.0391,-0.0426,-0.0462,-0.0231,-0.023,-0.0229,0,-0.0044,-0.0024,0.0019,0.006,0.0072,0.0122,0.0167,0.0173,0.0232,0.0299,0.0355,0.0341,0.0374,0.0259,0.0088,-0.0032,-0.0173,-0.0116,-0.0188,-0.0285,-0.0385,-0.0443,-0.0477,-0.0138,-0.0137,-0.0136,-0.0135,0,0.0007,0.0027,0.0064,0.0148,0.0205,0.0262,0.0328,0.0389,0.043,0.0515,0.0625,0.0655,0.0549,0.0433,0.0236,0.0128,-0.0183,-0.0094,-0.0213,-0.0316,-0.0363,-0.0415,-0.0192,-0.0123,-0.0124,-0.0125,-0.0126,-0.0126,0.0065,0.0112,0.0177,0.026,0.0324,0.0415,0.0484,0.0573,0.0697,0.0844,0.0849,0.0946,0.0718,0.0465,0.0291,-0.0038,-0.0074,-0.0162,-0.0248,-0.0294,-0.0339,-0.0074,-0.0016,-0.0017,-0.0017,-0.0018,-0.0018,0,0.0161,0.0212,0.0288,0.0392,0.048,0.0487,0.0608,0.0692,0.0869,0.1007,0.1128,0.1103,0.084,0.0514,0.0066,-0.0165,-0.0269,-0.0307,-0.0402,-0.0429,-0.0199,-0.0206,-0.0164,-0.0164,-0.0164,-0.0164,-0.0164,-0.0163,0.022,0.0323,0.036,0.0522,0.0589,0.0707,0.0782,0.0912,0.1027,0.1216,0.1295,0.1326,0.1062,0.0276,-0.0275,-0.0398,-0.0566,-0.0583,-0.069,-0.0569,-0.0563,-0.0557,-0.0582,-0.062,-0.0621,-0.087,-0.0872,-0.0875]}],[{"header":{"parameterUnit":"m.s-1","parameterCategory":2,"la1":30.2991,"la2":30.254,"lo1":-89.0895,"lo2":-89.0444,"dy":0.0017,"dx":0.0017,"nx":28,"ny":28,"refTime":"2024-08-26T09:00:00:Z","depth":"2","parameterNumber":2,"parameterNumberName":"U-component_of_CURRENTS"},"data":[0,0,0,0,0,0,0,0,0,0,0,0,0,0,0,0,0,0,0,0,0,0,0,0,0,0,0,0,0,0,0,0,0,0,0,0,0,0,0,0,0,0,0,0,0,0,0,0,0,0,0,0,0,0,0,0,0,0,0.2288,0.2289,0,0.2418,0.242,0.2421,0.2479,0.2478,0.2478,0.2478,0.2335,0.2332,0.2328,0,0,0,0,0,0,0,0,0,0,0,0,0,0.2183,0.2184,0.2288,0.2289,0.2291,0.2418,0.242,0.2422,0.2479,0.2478,0.2478,0.2478,0.2337,0.2332,0.2328,0,0,0,0,0,0,0,0,0,0,0,0,0,0.2263,0.2184,0.2288,0.2334,0.2339,0.2417,0.242,0.2422,0.2479,0.2478,0.2478,0.2478,0.2338,0.2333,0.2327,0.2302,0,0,0.2311,0.2309,0,0,0,0,0,0,0,0,0.2258,0.2267,0.2326,0.2331,0.2337,0.2431,0.2331,0.2368,0.2479,0.2427,0.2478,0.2477,0.2342,0.2336,0.2367,0.2296,0.229,0.2311,0.2308,0.2305,0.2304,0,0,0,0,0,0,0,0.2252,0.2262,0.234,0.2327,0.2334,0.2381,0.2391,0.234,0.238,0.2431,0.2435,0.2449,0.2343,0.2372,0.2363,0.2288,0.2311,0.2306,0.2303,0.2301,0.2272,0.2274,0,0,0,0,0,0,0.223,0.2256,0.2336,0.2344,0.2295,0.2382,0.2394,0.2402,0.2387,0.2387,0.2449,0.2451,0.2381,0.2369,0.2357,0.2346,0.2305,0.23,0.2297,0.2269,0.2272,0.2275,0,0,0,0,0,0,0.2227,0.2236,0.2331,0.2303,0.2318,0.2384,0.2393,0.2405,0.2447,0.2403,0.2398,0.248,0.238,0.2365,0.232,0.2339,0.2298,0.2293,0.2266,0.227,0.2274,0.2308,0,0,0,0,0,0,0.2224,0.2234,0.2249,0.2301,0.2319,0.2371,0.2394,0.2407,0.2454,0.2458,0.2427,0.2414,0.2379,0.2328,0.2314,0.2331,0.2289,0.2263,0.2268,0.2272,0.2304,0.2313,0.232,0,0,0,0,0,0.2219,0.2239,0.2249,0.226,0.2331,0.2371,0.2384,0.2431,0.2456,0.2469,0.2453,0.2416,0.2349,0.2324,0.2308,0.2324,0.2261,0.2267,0.2272,0.2301,0.2311,0.232,0,0,0,0,0,0,0.2203,0.2248,0.226,0.2292,0.2323,0.238,0.2413,0.2441,0.245,0.2458,0.2414,0.2399,0.2381,0.2352,0.2327,0.234,0.2312,0.2314,0.2339,0.2349,0.2356,0.2408,0.2284,0,0,0,0,0,0.2204,0.2237,0.2268,0.23,0.2312,0.2365,0.2396,0.2427,0.2439,0.2449,0.2429,0.2415,0.2394,0.2368,0.235,0.2324,0.2323,0.234,0.2348,0.2355,0.2393,0.2409,0.2421,0.2293,0.2293,0.2293,0,0,0.2205,0.2241,0.2257,0.2301,0.2336,0.2353,0.2384,0.2434,0.2462,0.2421,0.2448,0.2433,0.2398,0.2391,0.2381,0.236,0.2387,0.2362,0.2367,0.2402,0.2416,0.2428,0.2439,0.2296,0.2296,0.2295,0,0,0.2226,0.2253,0.228,0.2302,0.2355,0.2375,0.2386,0.244,0.2477,0.2493,0.2485,0.2491,0.2451,0.2447,0.2433,0.2475,0.2435,0.2469,0.253,0.2544,0.2554,0.2563,0.2551,0.2559,0.2463,0.2464,0.2464,0,0.223,0.2257,0.2294,0.232,0.234,0.2377,0.2394,0.2434,0.2474,0.2499,0.2505,0.253,0.2494,0.2496,0.2526,0.2492,0.2484,0.248,0.2551,0.2561,0.2569,0.2556,0.2564,0.2466,0.2466,0.2465,0.2465,0,0.2251,0.2277,0.2296,0.233,0.2357,0.238,0.2419,0.2454,0.25,0.2541,0.2591,0.2586,0.2603,0.2598,0.2569,0.2617,0.2585,0.2559,0.2518,0.2584,0.2565,0.2573,0.2469,0.2468,0.2468,0.2467,0,0,0.2238,0.2296,0.2302,0.2313,0.2362,0.2379,0.2426,0.2468,0.2515,0.2576,0.2631,0.2658,0.2695,0.269,0.2672,0.2696,0.2736,0.2662,0.2661,0.2636,0.275,0.2684,0.2685,0.271,0.2712,0.2714,0.2701,0,0.2237,0.2278,0.231,0.233,0.2341,0.2382,0.2417,0.2473,0.2541,0.2597,0.2649,0.2695,0.2715,0.2733,0.2767,0.2747,0.2764,0.2742,0.2706,0.2706,0.2627,0.2696,0.2479,0.2447,0.2708,0.271,0.2711,0,0.2226,0.2263,0.2288,0.2329,0.2337,0.2353,0.2421,0.2466,0.2554,0.2614,0.2701,0.2744,0.2808,0.281,0.2862,0.2842,0.2821,0.2809,0.2806,0.275,0.2657,0.2433,0.2451,0.2723,0.2722,0.2721,0.2721,0,0.2178,0.2233,0.2252,0.2264,0.232,0.2345,0.2377,0.2474,0.2526,0.2639,0.2691,0.2785,0.2828,0.286,0.2892,0.2868,0.2929,0.2869,0.2791,0.2783,0.2601,0.2574,0.2907,0.2907,0.2907,0.2907,0.2907,0,0.2137,0.2148,0.2233,0.2232,0.2263,0.2324,0.2378,0.2436,0.2532,0.2583,0.2704,0.2763,0.285,0.2901,0.2906,0.2897,0.2943,0.2835,0.2794,0.2604,0.258,0.2827,0.2818,0.2907,0.2907,0.2907,0.2907,0,0.2065,0.2112,0.2141,0.2215,0.2235,0.2265,0.2348,0.2387,0.2504,0.2574,0.261,0.2745,0.2813,0.2888,0.2923,0.29,0.2898,0.2871,0.2645,0.2579,0.2726,0.2719,0.2764,0.2762,0.2761,0.2759,0.2758,0,0.2019,0.2054,0.2122,0.2136,0.2164,0.2223,0.2247,0.2354,0.2399,0.2555,0.2558,0.268,0.2721,0.2781,0.2781,0.2778,0.2848,0.2564,0.2491,0.2766,0.2721,0.2717,0.2712,0.2241,0.2236,0.2232,0.2228,0,0.1974,0.2021,0.2025,0.2074,0.2097,0.2138,0.2185,0.2202,0.2322,0.2379,0.244,0.2491,0.257,0.2489,0.2535,0.2503,0.2556,0.2473,0.2824,0.2325,0.2275,0.223,0.2243,0.2189,0.2193,0.2196,0.2198,0.22,0.1931,0.194,0.197,0.1994,0.2026,0.2041,0.2024,0.2065,0.2094,0.2135,0.2241,0.224,0.2284,0.223,0.2179,0.2162,0.2319,0.2209,0.2221,0.2238,0.2194,0.2146,0.2025,0.2028,0.203,0.2032,0.2034,0,0.1881,0.1889,0.1899,0.1899,0.1878,0.1956,0.1961,0.1913,0.1873,0.1934,0.1951,0.1814,0.1773,0.1839,0.1743,0.175,0.1724,0.1681,0.1622,0.1662,0.1698,0.1624,0.1305,0.1303,0.1301,0.1299,0,0,0.1844,0.1805,0.1801,0.1746,0.1761,0.1716,0.17,0.1645,0.1645,0.1577,0.156,0.1677,0.1766,0.1503,0.1478,0.1373,0.1504,0.1321,0.1907,0.1876,0.1909,0.2007,0.1941,0,0,0,0,0]},{"header":{"parameterUnit":"m.s-1","parameterCategory":2,"la1":30.2991,"la2":30.254,"lo1":-89.0895,"lo2":-89.0444,"dy":0.0017,"dx":0.0017,"nx":28,"ny":28,"refTime":"2024-08-26T09:00:00:Z","depth":"2","parameterNumber":3,"parameterNumberName":"V-component_of_CURRENTS"},"data":[0,0,0,0,0,0,0,0,0,0,0,0,0,0,0,0,0,0,0,0,0,0,0,0,0,0,0,0,0,0,0,0,0,0,0,0,0,0,0,0,0,0,0,0,0,0,0,0,0,0,0,0,0,0,0,0,0,0,0.0317,0.0316,0,0.0177,0.0176,0.0175,0.0091,0.009,0.009,0.0089,0.0038,0.0037,0.0036,0,0,0,0,0,0,0,0,0,0,0,0,0,0.0402,0.0402,0.0318,0.0316,0.0314,0.0178,0.0176,0.0174,0.0091,0.009,0.009,0.0089,0.0038,0.0037,0.0036,0,0,0,0,0,0,0,0,0,0,0,0,0,0.0326,0.0402,0.0318,0.0254,0.0247,0.0178,0.0176,0.0174,0.0091,0.009,0.0089,0.0089,0.0039,0.0037,0.0036,0.0045,0,0,0.0032,0.0032,0,0,0,0,0,0,0,0,0.0331,0.0324,0.0266,0.0259,0.025,0.0149,0.0186,0.0135,0.0091,0.0152,0.0089,0.0088,0.0083,0.0078,0.0055,0.0043,0.0041,0.0032,0.0031,0.0031,0.0031,0,0,0,0,0,0,0,0.0336,0.0328,0.0264,0.0264,0.0254,0.0194,0.0184,0.0176,0.0127,0.0147,0.014,0.0122,0.0079,0.0056,0.0053,0.004,0.0032,0.0031,0.003,0.003,-0.0013,-0.0013,0,0,0,0,0,0,0.0356,0.0334,0.0269,0.026,0.0287,0.0194,0.0182,0.0184,0.0125,0.0114,0.0122,0.0118,0.0059,0.0055,0.0051,0.005,0.0031,0.003,0.0029,-0.0013,-0.0013,-0.0014,0,0,0,0,0,0,0.0359,0.0353,0.0274,0.029,0.0276,0.0194,0.0196,0.0182,0.0146,0.0105,0.0096,0.0101,0.0058,0.0053,0.0033,0.0048,0.0029,0.0028,-0.0012,-0.0013,-0.0013,0.0053,0,0,0,0,0,0,0.0363,0.0355,0.0358,0.0293,0.0276,0.0241,0.0196,0.0179,0.0136,0.0129,0.0084,0.0078,0.0057,0.0035,0.0032,0.0046,0.0027,-0.0012,-0.0012,-0.0013,0.0051,0.0055,0.0058,0,0,0,0,0,0.0366,0.0375,0.036,0.0351,0.0286,0.0241,0.0228,0.0166,0.0136,0.013,0.009,0.0079,0.0027,0.0034,0.003,0.0044,-0.0011,-0.0012,-0.0013,0.005,0.0054,0.0057,0,0,0,0,0,0,0.0409,0.0366,0.0348,0.0342,0.0299,0.0226,0.0207,0.0166,0.0126,0.0117,0.0079,0.0071,0.0058,0.0037,0.0044,0.0025,0.0005,0.0004,0.0054,0.0058,0.0061,0.007,0.0026,0,0,0,0,0,0.0424,0.0419,0.0368,0.0361,0.0345,0.0277,0.0247,0.0208,0.0163,0.0142,0.0106,0.0071,0.0053,0.0044,0.0021,0.0018,-0.0004,0.002,0.0023,0.0026,0.0028,0.0004,0.0006,-0.0016,-0.0016,-0.0016,0,0,0.0438,0.041,0.0408,0.0369,0.033,0.0311,0.0258,0.0219,0.02,0.0148,0.0115,0.0085,0.0052,0.0042,0.0035,0.0027,0.0021,0.0025,0.0028,0.0028,0.0004,0.0006,0.0008,-0.0017,-0.0017,-0.0017,0,0,0.0457,0.0444,0.0444,0.0417,0.0364,0.0327,0.0319,0.0252,0.0223,0.0188,0.0148,0.012,0.0084,0.0064,0.0051,0.0057,0.0038,0.0052,0.0082,0.0059,0.0062,0.0063,0.0045,0.0045,0.0056,0.0056,0.0056,0,0.0468,0.047,0.0435,0.0424,0.0404,0.0341,0.0334,0.03,0.0231,0.0222,0.0187,0.0123,0.0093,0.0089,0.0083,0.0067,0.0052,0.0077,0.0066,0.0067,0.0068,0.0049,0.0048,0.0059,0.0058,0.0058,0.0058,0,0.0488,0.0486,0.0483,0.0458,0.0434,0.0419,0.0373,0.0353,0.0306,0.027,0.0242,0.0185,0.015,0.0136,0.011,0.0106,0.0094,0.0076,0.0065,0.0075,0.0053,0.0051,0.0063,0.0062,0.0061,0.006,0,0,0.0514,0.0502,0.0499,0.05,0.0453,0.0437,0.0425,0.0401,0.0401,0.0333,0.0326,0.0268,0.0231,0.0211,0.0175,0.0148,0.0134,0.0117,0.0114,0.0114,0.0092,0.0072,0.0067,0.012,0.012,0.012,0.0078,0,0.0533,0.0541,0.0523,0.0527,0.0528,0.049,0.0487,0.046,0.0426,0.041,0.0352,0.0327,0.0264,0.0248,0.0212,0.0155,0.0129,0.0147,0.0068,0.0066,0.006,0.0064,0.0087,0.005,0.0075,0.0075,0.0075,0,0.0552,0.0556,0.0572,0.0574,0.0572,0.0568,0.0564,0.0551,0.0528,0.0504,0.0467,0.0417,0.0369,0.0309,0.0215,0.0232,0.0166,0.0114,0.0111,0.0068,0.0042,0.004,0.0044,0.007,0.007,0.0071,0.0071,0,0.0586,0.0588,0.0607,0.0605,0.0599,0.0608,0.06,0.0583,0.0589,0.0565,0.0563,0.0494,0.046,0.0366,0.0243,0.0233,0.0141,0.0115,0.0036,0.0034,0.0023,0.002,0.0049,0.005,0.005,0.005,0.005,0,0.0616,0.0631,0.0631,0.0644,0.0675,0.0648,0.0675,0.0669,0.0664,0.0689,0.0611,0.0612,0.0471,0.0398,0.0279,0.0152,0.0166,0.0042,0.0022,0.0046,0.0046,0.0035,0.0034,0.0048,0.0049,0.0049,0.0049,0,0.0653,0.0654,0.0675,0.0682,0.0694,0.0711,0.0729,0.0753,0.0738,0.0768,0.0763,0.0704,0.0606,0.0461,0.0317,0.0206,0.0082,0.0033,0.0072,0.0056,-0.0019,-0.0017,-0.0057,-0.0058,-0.0059,-0.006,-0.006,0,0.0677,0.0692,0.0709,0.073,0.0739,0.0764,0.0793,0.0794,0.0822,0.0828,0.0853,0.0777,0.0731,0.0507,0.0307,0.0107,0.0079,-0.0002,-0.0029,-0.0015,-0.003,-0.0026,-0.0023,-0.0015,-0.0016,-0.0016,-0.0016,0,0.0721,0.072,0.0737,0.0775,0.0809,0.0851,0.0889,0.0928,0.0939,0.0966,0.0986,0.0951,0.0748,0.055,0.0281,0.015,0.0028,-0.0012,-0.0001,0.0007,0.0021,0.0006,0.0009,-0.0017,-0.0017,-0.0017,-0.0017,-0.0017,0.0744,0.0756,0.0772,0.0807,0.0856,0.092,0.0959,0.1006,0.1061,0.1086,0.1074,0.1013,0.0813,0.0453,0.0239,0.0012,0.0017,-0.0068,-0.0066,-0.0064,-0.0053,-0.0041,-0.0089,-0.0089,-0.0089,-0.0089,-0.0089,0,0.0757,0.0772,0.0807,0.0844,0.0896,0.0925,0.1012,0.1042,0.1108,0.1132,0.1128,0.0928,0.0717,0.0479,0.0143,-0.0054,-0.006,-0.0114,-0.0079,-0.0076,-0.0074,-0.0062,-0.0101,-0.0102,-0.0103,-0.0103,0,0,0.076,0.0787,0.0796,0.0863,0.09,0.0971,0.1021,0.1078,0.1108,0.1113,0.1077,0.1023,0.0763,0.0517,0.0262,0.0073,0.0042,0.0039,0.0071,0.0145,0.015,-0.0024,-0.0,0,0,0,0,0]}],[{"header":{"parameterUnit":"m.s-1","parameterCategory":2,"la1":30.2991,"la2":30.254,"lo1":-89.0895,"lo2":-89.0444,"dy":0.0017,"dx":0.0017,"nx":28,"ny":28,"refTime":"2024-08-26T09:00:00:Z","depth":"4","parameterNumber":2,"parameterNumberName":"U-component_of_CURRENTS"},"data":[0,0,0,0,0,0,0,0,0,0,0,0,0,0,0,0,0,0,0,0,0,0,0,0,0,0,0,0,0,0,0,0,0,0,0,0,0,0,0,0,0,0,0,0,0,0,0,0,0,0,0,0,0,0,0,0,0,0,0.0895,0.0896,0,0.0923,0.0923,0.0923,0.0951,0.0952,0.0952,0.0953,0.1099,0.1102,0.1106,0,0,0,0,0,0,0,0,0,0,0,0,0,0.088,0.088,0.0895,0.0896,0.0896,0.0923,0.0923,0.0923,0.0951,0.0952,0.0953,0.0953,0.1098,0.1102,0.1106,0,0,0,0,0,0,0,0,0,0,0,0,0,0.0893,0.088,0.0895,0.0915,0.0917,0.0923,0.0923,0.0923,0.0951,0.0952,0.0953,0.0954,0.1097,0.1101,0.1106,0.112,0,0,0.1122,0.1124,0,0,0,0,0,0,0,0,0.0892,0.0893,0.0912,0.0914,0.0916,0.0936,0.0971,0.0995,0.0951,0.0936,0.0953,0.0954,0.1056,0.1065,0.1063,0.1127,0.1133,0.1122,0.1125,0.1127,0.1129,0,0,0,0,0,0,0,0.0891,0.0892,0.0904,0.0912,0.0915,0.0927,0.093,0.0975,0.0992,0.0937,0.094,0.0946,0.1058,0.1058,0.1067,0.1135,0.1122,0.1127,0.113,0.1132,0.1291,0.1293,0,0,0,0,0,0,0.089,0.0891,0.0903,0.0905,0.0908,0.0927,0.0929,0.0927,0.0989,0.0998,0.0945,0.0947,0.1049,0.1061,0.1073,0.1171,0.1127,0.1132,0.1135,0.129,0.1292,0.1293,0,0,0,0,0,0,0.0889,0.089,0.0902,0.0901,0.0904,0.0926,0.0923,0.0927,0.0956,0.0994,0.1006,0.0973,0.105,0.1066,0.1139,0.1174,0.1134,0.1139,0.1289,0.1291,0.1292,0.1318,0,0,0,0,0,0,0.0889,0.089,0.0901,0.09,0.0904,0.0926,0.0923,0.0927,0.0957,0.0961,0.1022,0.1034,0.1052,0.1131,0.1144,0.1181,0.1143,0.1287,0.129,0.1292,0.1316,0.1321,0.1325,0,0,0,0,0,0.0888,0.0892,0.0901,0.0904,0.0913,0.0928,0.0931,0.0948,0.0958,0.0976,0.1018,0.1033,0.1155,0.1137,0.1151,0.119,0.1286,0.1289,0.1292,0.1314,0.132,0.1325,0,0,0,0,0,0,0.0895,0.0895,0.0905,0.0912,0.0931,0.0934,0.0953,0.0964,0.1006,0.1022,0.1054,0.107,0.1148,0.1164,0.1143,0.1241,0.1221,0.1227,0.1233,0.124,0.1244,0.1233,0.1147,0,0,0,0,0,0.0901,0.0902,0.0914,0.0923,0.0935,0.095,0.0963,0.0978,0.1007,0.1026,0.1068,0.1115,0.1164,0.1198,0.1242,0.1299,0.1309,0.1332,0.1336,0.134,0.1341,0.1381,0.139,0.1302,0.1302,0.1302,0,0,0.0907,0.0908,0.0911,0.0926,0.0941,0.0963,0.0961,0.099,0.1017,0.1039,0.1102,0.1141,0.1184,0.1246,0.1282,0.1269,0.1371,0.1343,0.1346,0.1345,0.1385,0.1394,0.1401,0.1304,0.1304,0.1303,0,0,0.0914,0.0924,0.0931,0.0949,0.0979,0.0989,0.1005,0.1031,0.1056,0.1113,0.1138,0.119,0.1268,0.1294,0.1319,0.1374,0.1396,0.1402,0.1419,0.1459,0.1466,0.1473,0.1497,0.1505,0.1401,0.1401,0.1401,0,0.0937,0.0934,0.094,0.0959,0.0981,0.1005,0.1033,0.1057,0.1106,0.1135,0.1144,0.125,0.1283,0.1351,0.1367,0.1385,0.1412,0.1394,0.1464,0.1471,0.1477,0.15,0.151,0.1403,0.1402,0.1402,0.1402,0,0.0942,0.0958,0.0968,0.0996,0.1023,0.105,0.1085,0.1125,0.116,0.1184,0.1267,0.1304,0.1365,0.1384,0.1395,0.1463,0.147,0.1467,0.1447,0.1487,0.151,0.1519,0.1405,0.1404,0.1404,0.1403,0,0,0.0957,0.0971,0.098,0.0998,0.1047,0.1067,0.1124,0.1175,0.1218,0.1269,0.1325,0.139,0.1414,0.1442,0.1468,0.1494,0.1554,0.1505,0.1506,0.1523,0.1648,0.1543,0.1543,0.1577,0.1579,0.158,0.1646,0,0.0973,0.0996,0.1007,0.1053,0.1073,0.1118,0.1166,0.122,0.1269,0.1329,0.1371,0.1439,0.1437,0.148,0.1507,0.1553,0.158,0.1536,0.1611,0.1613,0.151,0.155,0.1585,0.1652,0.1655,0.1656,0.1657,0,0.0981,0.0992,0.1031,0.1076,0.1094,0.1136,0.122,0.1269,0.135,0.139,0.1455,0.1494,0.156,0.1543,0.1628,0.1611,0.1634,0.1649,0.1652,0.1549,0.1524,0.1605,0.1673,0.1672,0.1671,0.167,0.1669,0,0.0972,0.1014,0.1043,0.1061,0.1118,0.1163,0.1213,0.1296,0.1347,0.1441,0.1487,0.1562,0.1618,0.1659,0.1695,0.1683,0.1772,0.1754,0.1676,0.1669,0.1732,0.1724,0.1805,0.1805,0.1805,0.1804,0.1804,0,0.097,0.0995,0.1045,0.1059,0.1117,0.117,0.1248,0.1307,0.1396,0.1452,0.1526,0.1576,0.1655,0.1711,0.1726,0.1728,0.1802,0.1683,0.1681,0.1741,0.1734,0.1738,0.1729,0.1807,0.1806,0.1806,0.1805,0,0.0948,0.0976,0.1015,0.1083,0.1112,0.1163,0.1263,0.1307,0.1405,0.1482,0.1519,0.1619,0.169,0.1743,0.1813,0.1761,0.1774,0.1754,0.1819,0.1819,0.1636,0.1628,0.167,0.1667,0.1664,0.1662,0.166,0,0.0929,0.0944,0.1029,0.1057,0.1092,0.1167,0.121,0.1308,0.1348,0.1488,0.151,0.1624,0.1675,0.1687,0.1748,0.177,0.1747,0.1734,0.1671,0.1629,0.1624,0.162,0.1616,0.1656,0.1655,0.1655,0.1654,0,0.0893,0.094,0.0973,0.1035,0.1086,0.1124,0.1193,0.1215,0.1321,0.1421,0.147,0.151,0.1583,0.1626,0.1658,0.1665,0.1729,0.1706,0.1711,0.1651,0.1613,0.1609,0.1608,0.1645,0.1646,0.1647,0.1647,0,0.0883,0.09,0.0956,0.1003,0.1055,0.106,0.1103,0.1142,0.1196,0.1338,0.1354,0.1467,0.1568,0.1574,0.1602,0.1604,0.1575,0.1507,0.1522,0.1532,0.1455,0.1384,0.1348,0,0,0,0,0,0.0864,0.0871,0.0912,0.0946,0.0987,0.1015,0.1076,0.1115,0.1215,0.1215,0.128,0.1339,0.1389,0.145,0.1426,0.1543,0.158,0.1506,0.1509,0.1594,0.1604,0.1525,0,0,0,0,0,0,0.0849,0.0883,0.0894,0.0882,0.0893,0.0918,0.0953,0.1015,0.1017,0.1132,0.1169,0.1257,0.1331,0.1398,0.1404,0.1421,0.1392,0.1579,0.1576,0.1588,0.1597,0.1606,0.1528,0,0,0,0,0]},{"header":{"parameterUnit":"m.s-1","parameterCategory":2,"la1":30.2991,"la2":30.254,"lo1":-89.0895,"lo2":-89.0444,"dy":0.0017,"dx":0.0017,"nx":28,"ny":28,"refTime":"2024-08-26T09:00:00:Z","depth":"4","parameterNumber":3,"parameterNumberName":"V-component_of_CURRENTS"},"data":[0,0,0,0,0,0,0,0,0,0,0,0,0,0,0,0,0,0,0,0,0,0,0,0,0,0,0,0,0,0,0,0,0,0,0,0,0,0,0,0,0,0,0,0,0,0,0,0,0,0,0,0,0,0,0,0,0,0,0.0342,0.0342,0,0.032,0.032,0.032,0.0316,0.0317,0.0317,0.0317,0.0274,0.0273,0.0272,0,0,0,0,0,0,0,0,0,0,0,0,0,0.0353,0.0353,0.0342,0.0342,0.0341,0.032,0.032,0.032,0.0316,0.0317,0.0317,0.0317,0.0275,0.0273,0.0272,0,0,0,0,0,0,0,0,0,0,0,0,0,0.0342,0.0353,0.0342,0.0336,0.0336,0.032,0.032,0.032,0.0316,0.0317,0.0317,0.0317,0.0275,0.0273,0.0271,0.0257,0,0,0.0266,0.0265,0,0,0,0,0,0,0,0,0.0343,0.0342,0.0338,0.0337,0.0336,0.032,0.0308,0.0297,0.0316,0.0325,0.0317,0.0317,0.0287,0.0284,0.0281,0.0255,0.0253,0.0266,0.0265,0.0264,0.0263,0,0,0,0,0,0,0,0.0344,0.0343,0.0335,0.0337,0.0336,0.0325,0.0324,0.0306,0.0306,0.0324,0.0323,0.0319,0.0286,0.0283,0.028,0.0253,0.0266,0.0264,0.0263,0.0262,0.022,0.022,0,0,0,0,0,0,0.0346,0.0344,0.0335,0.0334,0.0339,0.0325,0.0324,0.0326,0.0306,0.0303,0.0319,0.0319,0.0286,0.0282,0.0279,0.0269,0.0264,0.0262,0.0261,0.022,0.022,0.022,0,0,0,0,0,0,0.0346,0.0345,0.0336,0.0337,0.0335,0.0325,0.0327,0.0325,0.0324,0.0303,0.03,0.032,0.0286,0.0281,0.0264,0.0267,0.0261,0.026,0.022,0.022,0.022,0.0244,0,0,0,0,0,0,0.0347,0.0346,0.0354,0.0337,0.0335,0.033,0.0327,0.0325,0.0321,0.0321,0.0302,0.0298,0.0286,0.0267,0.0263,0.0264,0.0258,0.022,0.022,0.022,0.0243,0.0245,0.0246,0,0,0,0,0,0.0347,0.0359,0.0354,0.0353,0.0345,0.033,0.0328,0.0321,0.0321,0.0321,0.0308,0.0299,0.0264,0.0266,0.026,0.0261,0.022,0.022,0.022,0.0242,0.0244,0.0246,0,0,0,0,0,0,0.037,0.0359,0.0354,0.0363,0.0347,0.0329,0.0335,0.0323,0.0313,0.0317,0.0295,0.029,0.0278,0.0265,0.0267,0.0249,0.0242,0.0241,0.0261,0.0262,0.0264,0.0277,0.0257,0,0,0,0,0,0.0378,0.0384,0.0364,0.0371,0.0368,0.0351,0.0346,0.0337,0.0323,0.032,0.0305,0.029,0.0273,0.0264,0.0249,0.0236,0.0217,0.0234,0.0236,0.0237,0.0244,0.0212,0.0212,0.022,0.022,0.022,0,0,0.0389,0.0383,0.0388,0.0377,0.037,0.0366,0.035,0.0346,0.0341,0.0316,0.0314,0.0294,0.027,0.0259,0.0252,0.0248,0.0223,0.0237,0.0238,0.0245,0.0212,0.0211,0.0211,0.022,0.022,0.022,0,0,0.0409,0.041,0.0419,0.0408,0.0395,0.0383,0.0382,0.0363,0.0359,0.0345,0.0327,0.0309,0.0286,0.0269,0.0256,0.0255,0.0231,0.0251,0.0269,0.0238,0.0237,0.0236,0.0204,0.02,0.0252,0.0252,0.0252,0,0.0418,0.043,0.0418,0.0419,0.0416,0.0392,0.0396,0.0384,0.0361,0.0358,0.035,0.0313,0.0291,0.0272,0.0273,0.0259,0.0238,0.0264,0.024,0.0238,0.0237,0.0205,0.02,0.0253,0.0253,0.0253,0.0253,0,0.0438,0.0447,0.0453,0.0449,0.0442,0.0443,0.0422,0.0417,0.0407,0.0391,0.0373,0.0339,0.0319,0.0305,0.0288,0.0269,0.0255,0.0245,0.0237,0.0238,0.0203,0.0198,0.0255,0.0254,0.0254,0.0254,0,0,0.0455,0.0466,0.0468,0.0474,0.046,0.0457,0.0455,0.0444,0.0446,0.0418,0.0413,0.0376,0.0358,0.0343,0.0314,0.0286,0.0251,0.0265,0.0263,0.0236,0.0181,0.0166,0.0159,0.0236,0.0235,0.0235,0.0159,0,0.0472,0.0491,0.0488,0.0503,0.051,0.0494,0.0495,0.0481,0.0466,0.0456,0.0416,0.0402,0.0372,0.0362,0.0328,0.0273,0.024,0.0273,0.0182,0.0179,0.0168,0.0153,0.0233,0.0155,0.0153,0.0153,0.0152,0,0.0487,0.0499,0.0524,0.0537,0.054,0.0546,0.0549,0.0544,0.0521,0.0509,0.0483,0.045,0.0406,0.0381,0.0287,0.031,0.0251,0.0205,0.02,0.0177,0.0155,0.0154,0.0142,0.0143,0.0143,0.0144,0.0145,0,0.0503,0.0523,0.055,0.0552,0.056,0.0574,0.058,0.0567,0.0571,0.0546,0.0542,0.0483,0.0457,0.0376,0.0281,0.0283,0.0173,0.0162,0.0091,0.0089,0.0115,0.0117,0.0095,0.0095,0.0095,0.0095,0.0096,0,0.0515,0.0535,0.0566,0.0577,0.0611,0.0607,0.0634,0.0627,0.0623,0.0627,0.0577,0.0559,0.0455,0.0379,0.0289,0.0173,0.0176,0.0092,0.0068,0.0126,0.013,0.0111,0.0114,0.0093,0.0093,0.0094,0.0094,0,0.0522,0.0541,0.0573,0.0604,0.062,0.0643,0.0677,0.069,0.0685,0.0687,0.0682,0.0615,0.0515,0.0401,0.0265,0.0188,0.0077,0.0034,0.0104,0.0086,0.001,0.0015,-0.0052,-0.0054,-0.0055,-0.0055,-0.0056,0,0.0527,0.0549,0.0598,0.0621,0.0641,0.068,0.0707,0.0721,0.0733,0.0716,0.0714,0.0632,0.057,0.0368,0.0248,0.0069,0.0045,-0.0014,-0.0002,0.0011,-0.0005,0.0002,0.0008,-0.0058,-0.0058,-0.0058,-0.0058,0,0.0534,0.0559,0.0582,0.0634,0.0674,0.0716,0.0755,0.0771,0.0779,0.078,0.0729,0.0627,0.0513,0.0362,0.0224,0.0096,0.0023,-0.0025,-0.0024,-0.0013,0.0004,-0.001,-0.0002,-0.0062,-0.0061,-0.0061,-0.0061,0,0.0539,0.0557,0.0592,0.0631,0.0685,0.0728,0.0754,0.0767,0.078,0.0764,0.0746,0.0627,0.0565,0.0375,0.0247,0.0121,0.0088,0.0046,0.0043,0.0046,0.0097,0.0135,0.0086,0,0,0,0,0,0.0537,0.0549,0.0586,0.0622,0.0677,0.0709,0.077,0.0792,0.081,0.0775,0.0761,0.0652,0.0462,0.0385,0.0254,0.0224,0.0064,0.0066,0.0015,-0.0081,-0.0077,-0.0035,0,0,0,0,0,0,0.053,0.0561,0.0572,0.0608,0.0634,0.0694,0.0736,0.0755,0.0736,0.0739,0.0642,0.0604,0.0423,0.0526,0.0243,0.0207,0.0154,-0.0016,-0.0019,-0.0083,-0.0079,-0.0076,-0.0032,0,0,0,0,0]}]]